{"data":{"norad_id":67441,"epoch":"2026-05-25T01:12:57.360960Z","epoch_age_seconds":66757,"freshness":"FRESH","line1":"1 67441U 26007G   26145.05066390 -.00000082  00000+0  90836-4 0  9994","line2":"2 67441  50.0080 168.6309 0000743 277.0027  83.0760 13.29323909 17710","mean_motion":13.29323909,"eccentricity":7.43e-5,"inclination_deg":50.008,"raan_deg":168.6309,"arg_perigee_deg":277.0027,"mean_anomaly_deg":83.076,"bstar":9.0836e-5,"rev_number":1771,"period_min":108.32574290214,"perigee_km":1148.7551758869,"apogee_km":1149.8737551747,"semimajor_km":7527.4514655308,"source":"CELESTRAK","updated_at":"2026-05-25T13:38:07.006292Z"}}